Starlink 4083

operational
NORAD ID: 52832 Int'l Des: 2022-062 Owner: SPXS Country: US Constellation: starlink
LEOCIRCULAR

About Starlink 4083

Description loading...

Live Position

Loading 3D Globe...

Upcoming Passes

Altitude History

Altitude vs Time

uPlot chart will show altitude changes over time

Two-Line Element Set

1 52832U 22062C 25305.13397903 -.00000626 00000-0 -21257-4 0 9999
2 52832 53.2176 251.2310 0001464 88.0265 272.0895 15.08820912186378
Epoch: Nov 1, 2025 • Age: 32 hours

Current Status

Altitude 542.1 km
Velocity 7.60 km/s
Sub-Earth Point 37.54°N, 69.68°E
Launch Date Jun 17, 2022
Age 3.3 years
Type internet

Technical Details

Classification Payload
Mass 297.00 kg
Dry Mass 275.00 kg
Total Mass 297.00 kg
Length 0.20 m
Diameter 2.80 m
Span 9.00 m
Shape Box + pan
Manufacturer SPXS
Bus Type Starlink
Phase Status In Orbit
Owner/State SPXS/US

Large Constellations

Loading constellations...